Regional Weather Roundup
Issued by NWS

Home | Current Version | Previous Version | Text Only | Print | Product List | Glossary On
Versions: 1 2 3 4 5 6 7 8 9 10 11 12 13 14 15 16 17 18 19 20 21 22 23 24 25 26 27 28 29 30 31 32 33 34 35 36 37 38 39 40 41 42 43 44 45 46 47 48 49 50
000
ASUS43 KLSX 230807
RWRMO

WEATHER SUMMARY FOR MISSOURI
NATIONAL WEATHER SERVICE SPRINGFIELD MO
300 AM CDT WED JUL 23 2014

NOTE: "FAIR" INDICATES FEW OR NO CLOUDS BELOW 12,000 FEET WITH NO
       SIGNIFICANT WEATHER AND/OR OBSTRUCTIONS TO VISIBILITY.
       CURRENT SKY AND/OR WEATHER CONDITIONS ARE NOT AVAILABLE FOR
       CHILLICOTHE AND FARMINGTON.

MOZ001>031-035>038-043-044-053-054-230900-
...NORTHERN AND WESTERN MISSOURI...

CITY           SKY/WX    TMP DP  RH WIND       PRES   REMARKS
KANSAS CTY INT PTCLDY    77  70  79 NE13      30.11S
KANSAS C DTWN  CLEAR     81  71  71 NE10      30.09S
LEE`S SUMMIT   CLEAR     80  72  76 NE9       30.10S
ST JOSEPH      CLEAR     73  67  81 N9        30.12S
CHILLICOTHE      N/A     76  68  76 VRB6      30.11R
KIRKSVILLE     CLEAR     73  69  87 N9        30.10S

$$
MOZ066>068-077>081-088>096-101>105-230900-
...SOUTHWEST MISSOURI...

CITY           SKY/WX    TMP DP  RH WIND       PRES   REMARKS
SPRINGFIELD    MOCLDY    80  75  84 CALM      30.08S
JOPLIN         PTCLDY    80  74  81 W5        30.09R

$$
MOZ032>034-039>042-045>050-055>058-069>072-230900-
...CENTRAL MISSOURI...

CITY           SKY/WX    TMP DP  RH WIND       PRES   REMARKS
COLUMBIA       MOCLDY    81  79  94 NW10      30.04S HX  90
JEFFERSON CITY PTCLDY    80  77  90 N3        30.02S
ROLLA          MOCLDY    76  72  87 SW7       30.04R
SEDALIA        CLEAR     81  77  88 N9        30.07R FOG
OSAGE BEACH    PTCLDY    77  73  88 CALM      30.04S

$$
MOZ051-052-059>065-230900-
...EAST CENTRAL MISSOURI...

CITY           SKY/WX    TMP DP  RH WIND       PRES   REMARKS
ST LOUIS INTL  CLOUDY    82  73  74 SW8       30.00F
SPIRIT OF STL  MOCLDY    77  73  87 CALM      30.00S
ST CHARLES     MOCLDY    78  73  84 CALM      29.99S

$$
MOZ072>076-082>087-097>100-106>115-230900-
...SOUTH CENTRAL AND SOUTHEAST MISSOURI...

CITY           SKY/WX    TMP DP  RH WIND       PRES   REMARKS
CAPE GIRARDEAU PTCLDY    71  68  90 CALM      30.03F
FARMINGTON     MOCLDY    75  66  73 SW6       30.06F
POPLAR BLUFF   PTCLDY    73  68  84 CALM      30.04S
WEST PLAINS    PTCLDY    74  68  81 SW5       30.09F

$$



USA.gov is the U.S. government's official web portal to all federal, state and local government web resources and services.